Year,Month,Day,Hour,Minute,Value (Times are PST for temperature in C)
2015,07,19,00,00,21.00
2015,07,19,00,01,21.00
2015,07,19,00,02,21.00
2015,07,19,00,03,21.00
2015,07,19,00,04,20.90
2015,07,19,00,05,20.90
2015,07,19,00,06,20.90
2015,07,19,00,07,20.80
2015,07,19,00,08,20.80
2015,07,19,00,09,20.80
2015,07,19,00,10,20.80
2015,07,19,00,11,20.80
2015,07,19,00,12,20.70
2015,07,19,00,13,20.70
2015,07,19,00,14,20.70
2015,07,19,00,15,20.60
2015,07,19,00,16,20.60
2015,07,19,00,17,20.60
2015,07,19,00,18,20.50
2015,07,19,00,19,20.50
2015,07,19,00,20,20.40
2015,07,19,00,21,20.40
2015,07,19,00,22,20.30
2015,07,19,00,23,20.30
2015,07,19,00,24,20.30
2015,07,19,00,25,20.30
2015,07,19,00,26,20.30
2015,07,19,00,27,20.30
2015,07,19,00,28,20.30
2015,07,19,00,29,20.30
2015,07,19,00,30,20.30
2015,07,19,00,31,20.30
2015,07,19,00,32,20.30
2015,07,19,00,33,20.30
2015,07,19,00,34,20.20
2015,07,19,00,35,20.20
2015,07,19,00,36,20.20
2015,07,19,00,37,20.20
2015,07,19,00,38,20.20
2015,07,19,00,39,20.20
2015,07,19,00,40,20.20
2015,07,19,00,41,20.20
2015,07,19,00,42,20.10
2015,07,19,00,43,20.10
2015,07,19,00,44,20.10
2015,07,19,00,45,20.00
2015,07,19,00,46,19.90
2015,07,19,00,47,19.90
2015,07,19,00,48,19.80
2015,07,19,00,49,19.80
2015,07,19,00,50,19.80
2015,07,19,00,51,19.80
2015,07,19,00,52,19.80
2015,07,19,00,53,19.80
2015,07,19,00,54,19.80
2015,07,19,00,55,19.70
2015,07,19,00,56,19.70
2015,07,19,00,57,19.70
2015,07,19,00,58,19.70
2015,07,19,00,59,19.70
2015,07,19,01,00,19.70
2015,07,19,01,01,19.70
2015,07,19,01,02,19.70
2015,07,19,01,03,19.60
2015,07,19,01,04,19.60
2015,07,19,01,05,19.60
2015,07,19,01,06,19.60
2015,07,19,01,07,19.50
2015,07,19,01,08,19.50
2015,07,19,01,09,19.50
2015,07,19,01,10,19.40
2015,07,19,01,11,19.40
2015,07,19,01,12,19.40
2015,07,19,01,13,19.30
2015,07,19,01,14,19.30
2015,07,19,01,15,19.30
2015,07,19,01,16,19.20
2015,07,19,01,17,19.20
2015,07,19,01,18,19.20
2015,07,19,01,19,19.20
2015,07,19,01,20,19.20
2015,07,19,01,21,19.20
2015,07,19,01,22,19.10
2015,07,19,01,23,19.10
2015,07,19,01,24,19.10
2015,07,19,01,25,19.10
2015,07,19,01,26,19.10
2015,07,19,01,27,19.10
2015,07,19,01,28,19.10
2015,07,19,01,29,19.10
2015,07,19,01,30,19.10
2015,07,19,01,31,19.10
2015,07,19,01,32,19.10
2015,07,19,01,33,19.10
2015,07,19,01,34,19.10
2015,07,19,01,35,19.00
2015,07,19,01,36,19.00
2015,07,19,01,37,19.00
2015,07,19,01,38,18.90
2015,07,19,01,39,18.90
2015,07,19,01,40,18.90
2015,07,19,01,41,18.90
2015,07,19,01,42,18.80
2015,07,19,01,43,18.80
2015,07,19,01,44,18.80
2015,07,19,01,45,18.80
2015,07,19,01,46,18.80
2015,07,19,01,47,18.80
2015,07,19,01,48,18.80
2015,07,19,01,49,18.80
2015,07,19,01,50,18.80
2015,07,19,01,51,18.80
2015,07,19,01,52,18.80
2015,07,19,01,53,18.70
2015,07,19,01,54,18.70
2015,07,19,01,55,18.70
2015,07,19,01,56,18.70
2015,07,19,01,57,18.70
2015,07,19,01,58,18.80
2015,07,19,01,59,18.80
2015,07,19,02,00,18.80
2015,07,19,02,01,18.80
2015,07,19,02,02,18.90
2015,07,19,02,03,18.90
2015,07,19,02,04,18.90
2015,07,19,02,05,18.90
2015,07,19,02,06,18.90
2015,07,19,02,07,19.00
2015,07,19,02,08,19.00
2015,07,19,02,09,19.00
2015,07,19,02,10,19.00
2015,07,19,02,11,18.90
2015,07,19,02,12,18.90
2015,07,19,02,13,18.80
2015,07,19,02,14,18.80
2015,07,19,02,15,18.80
2015,07,19,02,16,18.80
2015,07,19,02,17,18.80
2015,07,19,02,18,18.80
2015,07,19,02,19,18.70
2015,07,19,02,20,18.70
2015,07,19,02,21,18.70
2015,07,19,02,22,18.70
2015,07,19,02,23,18.70
2015,07,19,02,24,18.70
2015,07,19,02,25,18.70
2015,07,19,02,26,18.70
2015,07,19,02,27,18.70
2015,07,19,02,28,18.70
2015,07,19,02,29,18.70
2015,07,19,02,30,18.70
2015,07,19,02,31,18.70
2015,07,19,02,32,18.70
2015,07,19,02,33,18.70
2015,07,19,02,34,18.60
2015,07,19,02,35,18.60
2015,07,19,02,36,18.60
2015,07,19,02,37,18.60
2015,07,19,02,38,18.60
2015,07,19,02,39,18.60
2015,07,19,02,40,18.60
2015,07,19,02,41,18.50
2015,07,19,02,42,18.50
2015,07,19,02,43,18.50
2015,07,19,02,44,18.40
2015,07,19,02,45,18.40
2015,07,19,02,46,18.40
2015,07,19,02,47,18.40
2015,07,19,02,48,18.40
2015,07,19,02,49,18.40
2015,07,19,02,50,18.30
2015,07,19,02,51,18.30
2015,07,19,02,52,18.30
2015,07,19,02,53,18.30
2015,07,19,02,54,18.30
2015,07,19,02,55,18.20
2015,07,19,02,56,18.20
2015,07,19,02,57,18.20
2015,07,19,02,58,18.20
2015,07,19,02,59,18.10
2015,07,19,03,00,18.10
2015,07,19,03,01,18.10
2015,07,19,03,02,18.10
2015,07,19,03,03,18.00
2015,07,19,03,04,18.00
2015,07,19,03,05,18.00
2015,07,19,03,06,18.00
2015,07,19,03,07,17.90
2015,07,19,03,08,17.90
2015,07,19,03,09,17.90
2015,07,19,03,10,17.90
2015,07,19,03,11,17.90
2015,07,19,03,12,17.90
2015,07,19,03,13,17.90
2015,07,19,03,14,17.90
2015,07,19,03,15,17.90
2015,07,19,03,16,17.90
2015,07,19,03,17,17.90
2015,07,19,03,18,17.90
2015,07,19,03,19,17.90
2015,07,19,03,20,17.80
2015,07,19,03,21,17.80
2015,07,19,03,22,17.80
2015,07,19,03,23,17.80
2015,07,19,03,24,17.80
2015,07,19,03,25,17.80
2015,07,19,03,26,17.70
2015,07,19,03,27,17.70
2015,07,19,03,28,17.70
2015,07,19,03,29,17.70
2015,07,19,03,30,17.60
2015,07,19,03,31,17.60
2015,07,19,03,32,17.60
2015,07,19,03,33,17.60
2015,07,19,03,34,17.60
2015,07,19,03,35,17.60
2015,07,19,03,36,17.60
2015,07,19,03,37,17.60
2015,07,19,03,38,17.60
2015,07,19,03,39,17.50
2015,07,19,03,40,17.50
2015,07,19,03,41,17.40
2015,07,19,03,42,17.40
2015,07,19,03,43,17.30
2015,07,19,03,44,17.30
2015,07,19,03,45,17.30
2015,07,19,03,46,17.30
2015,07,19,03,47,17.30
2015,07,19,03,48,17.30
2015,07,19,03,49,17.30
2015,07,19,03,50,17.20
2015,07,19,03,51,17.20
2015,07,19,03,52,17.20
2015,07,19,03,53,17.20
2015,07,19,03,54,17.20
2015,07,19,03,55,17.20
2015,07,19,03,56,17.20
2015,07,19,03,57,17.20
2015,07,19,03,58,17.20
2015,07,19,03,59,17.20
2015,07,19,04,00,17.20
2015,07,19,04,01,17.20
2015,07,19,04,02,17.20
2015,07,19,04,03,17.20
2015,07,19,04,04,17.20
2015,07,19,04,05,17.20
2015,07,19,04,06,17.20
2015,07,19,04,07,17.20
2015,07,19,04,08,17.20
2015,07,19,04,09,17.10
2015,07,19,04,10,17.10
2015,07,19,04,11,17.10
2015,07,19,04,12,17.10
2015,07,19,04,13,17.20
2015,07,19,04,14,17.20
2015,07,19,04,15,17.20
2015,07,19,04,16,17.20
2015,07,19,04,17,17.20
2015,07,19,04,18,17.20
2015,07,19,04,19,17.20
2015,07,19,04,20,17.20
2015,07,19,04,21,17.30
2015,07,19,04,22,17.30
2015,07,19,04,23,17.30
2015,07,19,04,24,17.30
2015,07,19,04,25,17.30
2015,07,19,04,26,17.30
2015,07,19,04,27,17.30
2015,07,19,04,28,17.30
2015,07,19,04,29,17.30
2015,07,19,04,30,17.30
2015,07,19,04,31,17.30
2015,07,19,04,32,17.30
2015,07,19,04,33,17.30
2015,07,19,04,34,17.30
2015,07,19,04,35,17.30
2015,07,19,04,36,17.30
2015,07,19,04,37,17.30
2015,07,19,04,38,17.30
2015,07,19,04,39,17.30
2015,07,19,04,40,17.30
2015,07,19,04,41,17.30
2015,07,19,04,42,17.30
2015,07,19,04,43,17.30
2015,07,19,04,44,17.30
2015,07,19,04,45,17.30
2015,07,19,04,46,17.30
2015,07,19,04,47,17.30
2015,07,19,04,48,17.30
2015,07,19,04,49,17.30
2015,07,19,04,50,17.30
2015,07,19,04,51,17.30
2015,07,19,04,52,17.20
2015,07,19,04,53,17.20
2015,07,19,04,54,17.20
2015,07,19,04,55,17.10
2015,07,19,04,56,17.10
2015,07,19,04,57,17.00
2015,07,19,04,58,17.00
2015,07,19,04,59,16.90
2015,07,19,05,00,16.90
2015,07,19,05,01,16.90
2015,07,19,05,02,16.80
2015,07,19,05,03,16.80
2015,07,19,05,04,16.80
2015,07,19,05,05,16.70
2015,07,19,05,06,16.70
2015,07,19,05,07,16.60
2015,07,19,05,08,16.60
2015,07,19,05,09,16.50
2015,07,19,05,10,16.50
2015,07,19,05,11,16.40
2015,07,19,05,12,16.40
2015,07,19,05,13,16.40
2015,07,19,05,14,16.40
2015,07,19,05,15,16.30
2015,07,19,05,16,16.30
2015,07,19,05,17,16.30
2015,07,19,05,18,16.30
2015,07,19,05,19,16.30
2015,07,19,05,20,16.30
2015,07,19,05,21,16.20
2015,07,19,05,22,16.20
2015,07,19,05,23,16.20
2015,07,19,05,24,16.20
2015,07,19,05,25,16.20
2015,07,19,05,26,16.20
2015,07,19,05,27,16.20
2015,07,19,05,28,16.10
2015,07,19,05,29,16.10
2015,07,19,05,30,16.10
2015,07,19,05,31,16.10
2015,07,19,05,32,16.10
2015,07,19,05,33,16.10
2015,07,19,05,34,16.00
2015,07,19,05,35,16.00
2015,07,19,05,36,16.00
2015,07,19,05,37,16.00
2015,07,19,05,38,16.00
2015,07,19,05,39,16.00
2015,07,19,05,40,15.90
2015,07,19,05,41,15.90
2015,07,19,05,42,15.90
2015,07,19,05,43,15.90
2015,07,19,05,44,15.90
2015,07,19,05,45,15.90
2015,07,19,05,46,15.90
2015,07,19,05,47,15.90
2015,07,19,05,48,15.80
2015,07,19,05,49,15.80
2015,07,19,05,50,15.80
2015,07,19,05,51,15.80
2015,07,19,05,52,15.80
2015,07,19,05,53,15.80
2015,07,19,05,54,15.80
2015,07,19,05,55,15.80
2015,07,19,05,56,15.80
2015,07,19,05,57,15.80
2015,07,19,05,58,15.80
2015,07,19,05,59,15.80
2015,07,19,06,00,15.80
2015,07,19,06,01,15.80
2015,07,19,06,02,15.80
2015,07,19,06,03,15.80
2015,07,19,06,04,15.90
2015,07,19,06,05,15.90
2015,07,19,06,06,15.90
2015,07,19,06,07,15.90
2015,07,19,06,08,15.90
2015,07,19,06,09,15.90
2015,07,19,06,10,15.90
2015,07,19,06,11,15.90
2015,07,19,06,12,15.90
2015,07,19,06,13,15.90
2015,07,19,06,14,15.90
2015,07,19,06,15,15.90
2015,07,19,06,16,15.90
2015,07,19,06,17,15.90
2015,07,19,06,18,15.90
2015,07,19,06,19,15.90
2015,07,19,06,20,15.90
2015,07,19,06,21,15.90
2015,07,19,06,22,15.90
2015,07,19,06,23,15.90
2015,07,19,06,24,16.00
2015,07,19,06,25,16.00
2015,07,19,06,26,16.00
2015,07,19,06,27,16.00
2015,07,19,06,28,16.00
2015,07,19,06,29,16.10
2015,07,19,06,30,16.10
2015,07,19,06,31,16.10
2015,07,19,06,32,16.20
2015,07,19,06,33,16.20
2015,07,19,06,34,16.20
2015,07,19,06,35,16.30
2015,07,19,06,36,16.30
2015,07,19,06,37,16.40
2015,07,19,06,38,16.40
2015,07,19,06,39,16.50
2015,07,19,06,40,16.60
2015,07,19,06,41,16.70
2015,07,19,06,42,16.70
2015,07,19,06,43,16.80
2015,07,19,06,44,16.80
2015,07,19,06,45,16.90
2015,07,19,06,46,16.90
2015,07,19,06,47,16.90
2015,07,19,06,48,17.00
2015,07,19,06,49,17.00
2015,07,19,06,50,17.10
2015,07,19,06,51,17.10
2015,07,19,06,52,17.10
2015,07,19,06,53,17.20
2015,07,19,06,54,17.30
2015,07,19,06,55,17.30
2015,07,19,06,56,17.40
2015,07,19,06,57,17.40
2015,07,19,06,58,17.50
2015,07,19,06,59,17.60
2015,07,19,07,00,17.60
2015,07,19,07,01,17.70
2015,07,19,07,02,17.80
2015,07,19,07,03,17.80
2015,07,19,07,04,17.90
2015,07,19,07,05,17.90
2015,07,19,07,06,18.00
2015,07,19,07,07,18.00
2015,07,19,07,08,18.10
2015,07,19,07,09,18.10
2015,07,19,07,10,18.20
2015,07,19,07,11,18.30
2015,07,19,07,12,18.40
2015,07,19,07,13,18.40
2015,07,19,07,14,18.50
2015,07,19,07,15,18.60
2015,07,19,07,16,18.60
2015,07,19,07,17,18.70
2015,07,19,07,18,18.70
2015,07,19,07,19,18.80
2015,07,19,07,20,18.80
2015,07,19,07,21,18.90
2015,07,19,07,22,19.00
2015,07,19,07,23,19.10
2015,07,19,07,24,19.20
2015,07,19,07,25,19.30
2015,07,19,07,26,19.40
2015,07,19,07,27,19.50
2015,07,19,07,28,19.70
2015,07,19,07,29,19.80
2015,07,19,07,30,19.90
2015,07,19,07,31,20.10
2015,07,19,07,32,20.20
2015,07,19,07,33,20.30
2015,07,19,07,34,20.40
2015,07,19,07,35,20.50
2015,07,19,07,36,20.60
2015,07,19,07,37,20.70
2015,07,19,07,38,20.70
2015,07,19,07,39,20.80
2015,07,19,07,40,20.80
2015,07,19,07,41,20.90
2015,07,19,07,42,20.90
2015,07,19,07,43,21.00
2015,07,19,07,44,21.00
2015,07,19,07,45,21.10
2015,07,19,07,46,21.10
2015,07,19,07,47,21.10
2015,07,19,07,48,21.20
2015,07,19,07,49,21.20
2015,07,19,07,50,21.30
2015,07,19,07,51,21.30
2015,07,19,07,52,21.40
2015,07,19,07,53,21.40
2015,07,19,07,54,21.50
2015,07,19,07,55,21.60
2015,07,19,07,56,21.60
2015,07,19,07,57,21.70
2015,07,19,07,58,21.70
2015,07,19,07,59,21.70
2015,07,19,08,00,21.80
2015,07,19,08,01,21.80
2015,07,19,08,02,21.80
2015,07,19,08,03,21.80
2015,07,19,08,04,21.80
2015,07,19,08,05,21.80
2015,07,19,08,06,21.80
2015,07,19,08,07,21.90
2015,07,19,08,08,21.90
2015,07,19,08,09,21.90
2015,07,19,08,10,21.90
2015,07,19,08,11,21.90
2015,07,19,08,12,21.90
2015,07,19,08,13,21.90
2015,07,19,08,14,22.00
2015,07,19,08,15,22.00
2015,07,19,08,16,22.10
2015,07,19,08,17,22.20
2015,07,19,08,18,22.20
2015,07,19,08,19,22.20
2015,07,19,08,20,22.20
2015,07,19,08,21,22.20
2015,07,19,08,22,22.20
2015,07,19,08,23,22.30
2015,07,19,08,24,22.30
2015,07,19,08,25,22.40
2015,07,19,08,26,22.40
2015,07,19,08,27,22.50
2015,07,19,08,28,22.50
2015,07,19,08,29,22.60
2015,07,19,08,30,22.60
2015,07,19,08,31,22.60
2015,07,19,08,32,22.60
2015,07,19,08,33,22.60
2015,07,19,08,34,22.60
2015,07,19,08,35,22.60
2015,07,19,08,36,22.70
2015,07,19,08,37,22.70
2015,07,19,08,38,22.70
2015,07,19,08,39,22.70
2015,07,19,08,40,22.70
2015,07,19,08,41,22.70
2015,07,19,08,42,22.60
2015,07,19,08,43,22.60
2015,07,19,08,44,22.50
2015,07,19,08,45,22.50
2015,07,19,08,46,22.50
2015,07,19,08,47,22.60
2015,07,19,08,48,22.70
2015,07,19,08,49,22.70
2015,07,19,08,50,22.70
2015,07,19,08,51,22.70
2015,07,19,08,52,22.70
2015,07,19,08,53,22.80
2015,07,19,08,54,22.90
2015,07,19,08,55,23.00
2015,07,19,08,56,23.00
2015,07,19,08,57,23.10
2015,07,19,08,58,23.10
2015,07,19,08,59,23.10
2015,07,19,09,00,23.10
2015,07,19,09,01,23.10
2015,07,19,09,02,23.10
2015,07,19,09,03,23.00
2015,07,19,09,04,23.10
2015,07,19,09,05,23.10
2015,07,19,09,06,23.10
2015,07,19,09,07,23.20
2015,07,19,09,08,23.30
2015,07,19,09,09,23.30
2015,07,19,09,10,23.40
2015,07,19,09,11,23.40
2015,07,19,09,12,23.40
2015,07,19,09,13,23.40
2015,07,19,09,14,23.50
2015,07,19,09,15,23.60
2015,07,19,09,16,23.60
2015,07,19,09,17,23.60
2015,07,19,09,18,23.60
2015,07,19,09,19,23.60
2015,07,19,09,20,23.70
2015,07,19,09,21,23.70
2015,07,19,09,22,23.80
2015,07,19,09,23,23.80
2015,07,19,09,24,23.80
2015,07,19,09,25,23.90
2015,07,19,09,26,23.90
2015,07,19,09,27,24.00
2015,07,19,09,28,24.10
2015,07,19,09,29,24.20
2015,07,19,09,30,24.20
2015,07,19,09,31,24.30
2015,07,19,09,32,24.30
2015,07,19,09,33,24.30
2015,07,19,09,34,24.40
2015,07,19,09,35,24.40
2015,07,19,09,36,24.40
2015,07,19,09,37,24.50
2015,07,19,09,38,24.50
2015,07,19,09,39,24.60
2015,07,19,09,40,24.60
2015,07,19,09,41,24.70
2015,07,19,09,42,24.60
2015,07,19,09,43,24.50
2015,07,19,09,44,24.50
2015,07,19,09,45,24.50
2015,07,19,09,46,24.50
2015,07,19,09,47,24.60
2015,07,19,09,48,24.60
2015,07,19,09,49,24.60
2015,07,19,09,50,24.60
2015,07,19,09,51,24.70
2015,07,19,09,52,24.70
2015,07,19,09,53,24.80
2015,07,19,09,54,24.80
2015,07,19,09,55,24.80
2015,07,19,09,56,24.80
2015,07,19,09,57,24.80
2015,07,19,09,58,24.80
2015,07,19,09,59,24.90
2015,07,19,10,00,24.90
2015,07,19,10,01,24.80
2015,07,19,10,02,24.80
2015,07,19,10,03,24.80
2015,07,19,10,04,24.80
2015,07,19,10,05,24.80
2015,07,19,10,06,24.80
2015,07,19,10,07,24.70
2015,07,19,10,08,24.70
2015,07,19,10,09,24.70
2015,07,19,10,10,24.60
2015,07,19,10,11,24.60
2015,07,19,10,12,24.60
2015,07,19,10,13,24.70
2015,07,19,10,14,24.70
2015,07,19,10,15,24.70
2015,07,19,10,16,24.60
2015,07,19,10,17,24.50
2015,07,19,10,18,24.50
2015,07,19,10,19,24.40
2015,07,19,10,20,24.30
2015,07,19,10,21,24.20
2015,07,19,10,22,24.20
2015,07,19,10,23,24.20
2015,07,19,10,24,24.20
2015,07,19,10,25,24.20
2015,07,19,10,26,24.30
2015,07,19,10,27,24.40
2015,07,19,10,28,24.40
2015,07,19,10,29,24.40
2015,07,19,10,30,24.50
2015,07,19,10,31,24.50
2015,07,19,10,32,24.60
2015,07,19,10,33,24.60
2015,07,19,10,34,24.60
2015,07,19,10,35,24.70
2015,07,19,10,36,24.70
2015,07,19,10,37,24.80
2015,07,19,10,38,24.90
2015,07,19,10,39,25.00
2015,07,19,10,40,25.10
2015,07,19,10,41,25.20
2015,07,19,10,42,25.30
2015,07,19,10,43,25.30
2015,07,19,10,44,25.30
2015,07,19,10,45,25.30
2015,07,19,10,46,25.30
2015,07,19,10,47,25.30
2015,07,19,10,48,25.20
2015,07,19,10,49,25.10
2015,07,19,10,50,25.00
2015,07,19,10,51,25.00
2015,07,19,10,52,25.00
2015,07,19,10,53,24.90
2015,07,19,10,54,24.90
2015,07,19,10,55,24.90
2015,07,19,10,56,24.90
2015,07,19,10,57,24.90
2015,07,19,10,58,25.00
2015,07,19,10,59,25.00
2015,07,19,11,00,25.10
2015,07,19,11,01,25.10
2015,07,19,11,02,25.10
2015,07,19,11,03,25.10
2015,07,19,11,04,25.10
2015,07,19,11,05,25.20
2015,07,19,11,06,25.20
2015,07,19,11,07,25.20
2015,07,19,11,08,25.30
2015,07,19,11,09,25.40
2015,07,19,11,10,25.50
2015,07,19,11,11,25.50
2015,07,19,11,12,25.60
2015,07,19,11,13,25.60
2015,07,19,11,14,25.60
2015,07,19,11,15,25.60
2015,07,19,11,16,25.60
2015,07,19,11,17,25.60
2015,07,19,11,18,25.60
2015,07,19,11,19,25.60
2015,07,19,11,20,25.70
2015,07,19,11,21,25.70
2015,07,19,11,22,25.60
2015,07,19,11,23,25.60
2015,07,19,11,24,25.50
2015,07,19,11,25,25.50
2015,07,19,11,26,25.60
2015,07,19,11,27,25.60
2015,07,19,11,28,25.70
2015,07,19,11,29,25.70
2015,07,19,11,30,25.70
2015,07,19,11,31,25.60
2015,07,19,11,32,25.60
2015,07,19,11,33,25.60
2015,07,19,11,34,25.60
2015,07,19,11,35,25.60
2015,07,19,11,36,25.60
2015,07,19,11,37,25.50
2015,07,19,11,38,25.50
2015,07,19,11,39,25.50
2015,07,19,11,40,25.60
2015,07,19,11,41,25.60
2015,07,19,11,42,25.60
2015,07,19,11,43,25.70
2015,07,19,11,44,25.70
2015,07,19,11,45,25.70
2015,07,19,11,46,25.70
2015,07,19,11,47,25.70
2015,07,19,11,48,25.70
2015,07,19,11,49,25.80
2015,07,19,11,50,25.80
2015,07,19,11,51,25.90
2015,07,19,11,52,26.00
2015,07,19,11,53,26.00
2015,07,19,11,54,26.00
2015,07,19,11,55,26.10
2015,07,19,11,56,26.10
2015,07,19,11,57,26.20
2015,07,19,11,58,26.20
2015,07,19,11,59,26.20
2015,07,19,12,00,26.20
2015,07,19,12,01,26.10
2015,07,19,12,02,26.20
2015,07,19,12,03,26.20
2015,07,19,12,04,26.20
2015,07,19,12,05,26.20
2015,07,19,12,06,26.30
2015,07,19,12,07,26.30
2015,07,19,12,08,26.40
2015,07,19,12,09,26.40
2015,07,19,12,10,26.50
2015,07,19,12,11,26.60
2015,07,19,12,12,26.60
2015,07,19,12,13,26.60
2015,07,19,12,14,26.60
2015,07,19,12,15,26.60
2015,07,19,12,16,26.70
2015,07,19,12,17,26.80
2015,07,19,12,18,26.90
2015,07,19,12,19,26.90
2015,07,19,12,20,27.00
2015,07,19,12,21,27.00
2015,07,19,12,22,27.00
2015,07,19,12,23,27.00
2015,07,19,12,24,27.00
2015,07,19,12,25,26.90
2015,07,19,12,26,27.00
2015,07,19,12,27,27.00
2015,07,19,12,28,27.00
2015,07,19,12,29,27.00
2015,07,19,12,30,27.00
2015,07,19,12,31,27.10
2015,07,19,12,32,27.10
2015,07,19,12,33,27.20
2015,07,19,12,34,27.10
2015,07,19,12,35,27.00
2015,07,19,12,36,26.80
2015,07,19,12,37,26.80
2015,07,19,12,38,26.80
2015,07,19,12,39,26.80
2015,07,19,12,40,26.90
2015,07,19,12,41,26.90
2015,07,19,12,42,26.90
2015,07,19,12,43,26.90
2015,07,19,12,44,26.90
2015,07,19,12,45,26.90
2015,07,19,12,46,26.90
2015,07,19,12,47,27.00
2015,07,19,12,48,27.10
2015,07,19,12,49,27.20
2015,07,19,12,50,27.30
2015,07,19,12,51,27.40
2015,07,19,12,52,27.50
2015,07,19,12,53,27.60
2015,07,19,12,54,27.60
2015,07,19,12,55,27.70
2015,07,19,12,56,27.70
2015,07,19,12,57,27.70
2015,07,19,12,58,27.80
2015,07,19,12,59,27.80
2015,07,19,13,00,27.80
2015,07,19,13,01,27.70
2015,07,19,13,02,27.70
2015,07,19,13,03,27.80
2015,07,19,13,04,27.80
2015,07,19,13,05,27.90
2015,07,19,13,06,28.00
2015,07,19,13,07,28.10
2015,07,19,13,08,28.20
2015,07,19,13,09,28.30
2015,07,19,13,10,28.40
2015,07,19,13,11,28.40
2015,07,19,13,12,28.40
2015,07,19,13,13,28.30
2015,07,19,13,14,28.10
2015,07,19,13,15,28.00
2015,07,19,13,16,27.90
2015,07,19,13,17,27.90
2015,07,19,13,18,28.00
2015,07,19,13,19,28.00
2015,07,19,13,20,28.10
2015,07,19,13,21,28.10
2015,07,19,13,22,28.00
2015,07,19,13,23,27.90
2015,07,19,13,24,27.70
2015,07,19,13,25,27.60
2015,07,19,13,26,27.40
2015,07,19,13,27,27.40
2015,07,19,13,28,27.40
2015,07,19,13,29,27.50
2015,07,19,13,30,27.50
2015,07,19,13,31,27.50
2015,07,19,13,32,27.50
2015,07,19,13,33,27.50
2015,07,19,13,34,27.50
2015,07,19,13,35,27.50
2015,07,19,13,36,27.50
2015,07,19,13,37,27.50
2015,07,19,13,38,27.40
2015,07,19,13,39,27.50
2015,07,19,13,40,27.60
2015,07,19,13,41,27.70
2015,07,19,13,42,27.80
2015,07,19,13,43,27.90
2015,07,19,13,44,28.00
2015,07,19,13,45,28.00
2015,07,19,13,46,28.00
2015,07,19,13,47,28.10
2015,07,19,13,48,28.10
2015,07,19,13,49,28.20
2015,07,19,13,50,28.20
2015,07,19,13,51,28.20
2015,07,19,13,52,28.10
2015,07,19,13,53,28.10
2015,07,19,13,54,28.20
2015,07,19,13,55,28.20
2015,07,19,13,56,28.30
2015,07,19,13,57,28.40
2015,07,19,13,58,28.50
2015,07,19,13,59,28.60
2015,07,19,14,00,28.70
2015,07,19,14,01,28.80
2015,07,19,14,02,28.80
2015,07,19,14,03,28.80
2015,07,19,14,04,28.80
2015,07,19,14,05,28.90
2015,07,19,14,06,28.80
2015,07,19,14,07,28.90
2015,07,19,14,08,28.90
2015,07,19,14,09,28.90
2015,07,19,14,10,28.80
2015,07,19,14,11,28.70
2015,07,19,14,12,28.80
2015,07,19,14,13,28.80
2015,07,19,14,14,28.90
2015,07,19,14,15,28.90
2015,07,19,14,16,28.90
2015,07,19,14,17,28.90
2015,07,19,14,18,28.90
2015,07,19,14,19,28.90
2015,07,19,14,20,28.90
2015,07,19,14,21,29.00
2015,07,19,14,22,29.10
2015,07,19,14,23,29.20
2015,07,19,14,24,29.10
2015,07,19,14,25,29.00
2015,07,19,14,26,29.00
2015,07,19,14,27,29.00
2015,07,19,14,28,28.80
2015,07,19,14,29,28.70
2015,07,19,14,30,28.60
2015,07,19,14,31,28.60
2015,07,19,14,32,28.70
2015,07,19,14,33,28.90
2015,07,19,14,34,29.00
2015,07,19,14,35,29.00
2015,07,19,14,36,28.90
2015,07,19,14,37,29.00
2015,07,19,14,38,29.00
2015,07,19,14,39,28.90
2015,07,19,14,40,28.90
2015,07,19,14,41,28.80
2015,07,19,14,42,28.80
2015,07,19,14,43,28.80
2015,07,19,14,44,28.80
2015,07,19,14,45,28.90
2015,07,19,14,46,29.00
2015,07,19,14,47,29.10
2015,07,19,14,48,29.10
2015,07,19,14,49,29.20
2015,07,19,14,50,29.20
2015,07,19,14,51,29.00
2015,07,19,14,52,28.90
2015,07,19,14,53,28.90
2015,07,19,14,54,28.90
2015,07,19,14,55,28.90
2015,07,19,14,56,28.90
2015,07,19,14,57,29.00
2015,07,19,14,58,29.00
2015,07,19,14,59,29.10
2015,07,19,15,00,29.00
2015,07,19,15,01,29.00
2015,07,19,15,02,29.00
2015,07,19,15,03,29.00
2015,07,19,15,04,29.10
2015,07,19,15,05,29.10
2015,07,19,15,06,29.10
2015,07,19,15,07,29.00
2015,07,19,15,08,28.90
2015,07,19,15,09,28.90
2015,07,19,15,10,28.90
2015,07,19,15,11,28.90
2015,07,19,15,12,28.90
2015,07,19,15,13,28.90
2015,07,19,15,14,29.00
2015,07,19,15,15,29.10
2015,07,19,15,16,29.30
2015,07,19,15,17,29.30
2015,07,19,15,18,29.30
2015,07,19,15,19,29.20
2015,07,19,15,20,29.20
2015,07,19,15,21,29.10
2015,07,19,15,22,29.10
2015,07,19,15,23,29.20
2015,07,19,15,24,29.20
2015,07,19,15,25,29.30
2015,07,19,15,26,29.40
2015,07,19,15,27,29.50
2015,07,19,15,28,29.50
2015,07,19,15,29,29.50
2015,07,19,15,30,29.50
2015,07,19,15,31,29.50
2015,07,19,15,32,29.40
2015,07,19,15,33,29.40
2015,07,19,15,34,29.40
2015,07,19,15,35,29.30
2015,07,19,15,36,29.30
2015,07,19,15,37,29.30
2015,07,19,15,38,29.30
2015,07,19,15,39,29.30
2015,07,19,15,40,29.30
2015,07,19,15,41,29.30
2015,07,19,15,42,29.20
2015,07,19,15,43,29.10
2015,07,19,15,44,29.00
2015,07,19,15,45,29.10
2015,07,19,15,46,29.10
2015,07,19,15,47,29.00
2015,07,19,15,48,28.90
2015,07,19,15,49,28.90
2015,07,19,15,50,28.90
2015,07,19,15,51,28.90
2015,07,19,15,52,28.90
2015,07,19,15,53,28.90
2015,07,19,15,54,28.90
2015,07,19,15,55,28.90
2015,07,19,15,56,28.90
2015,07,19,15,57,28.90
2015,07,19,15,58,28.90
2015,07,19,15,59,28.80
2015,07,19,16,00,28.80
2015,07,19,16,01,28.70
2015,07,19,16,02,28.70
2015,07,19,16,03,28.60
2015,07,19,16,04,28.60
2015,07,19,16,05,28.50
2015,07,19,16,06,28.50
2015,07,19,16,07,28.50
2015,07,19,16,08,28.40
2015,07,19,16,09,28.40
2015,07,19,16,10,28.40
2015,07,19,16,11,28.40
2015,07,19,16,12,28.40
2015,07,19,16,13,28.40
2015,07,19,16,14,28.50
2015,07,19,16,15,28.60
2015,07,19,16,16,28.60
2015,07,19,16,17,28.60
2015,07,19,16,18,28.60
2015,07,19,16,19,28.50
2015,07,19,16,20,28.50
2015,07,19,16,21,28.40
2015,07,19,16,22,28.40
2015,07,19,16,23,28.40
2015,07,19,16,24,28.40
2015,07,19,16,25,28.50
2015,07,19,16,26,28.40
2015,07,19,16,27,28.40
2015,07,19,16,28,28.40
2015,07,19,16,29,28.40
2015,07,19,16,30,28.40
2015,07,19,16,31,28.40
2015,07,19,16,32,28.40
2015,07,19,16,33,28.40
2015,07,19,16,34,28.40
2015,07,19,16,35,28.30
2015,07,19,16,36,28.40
2015,07,19,16,37,28.40
2015,07,19,16,38,28.40
2015,07,19,16,39,28.30
2015,07,19,16,40,28.30
2015,07,19,16,41,28.20
2015,07,19,16,42,28.10
2015,07,19,16,43,28.00
2015,07,19,16,44,27.90
2015,07,19,16,45,27.90
2015,07,19,16,46,27.90
2015,07,19,16,47,27.90
2015,07,19,16,48,27.90
2015,07,19,16,49,27.90
2015,07,19,16,50,27.90
2015,07,19,16,51,27.90
2015,07,19,16,52,28.00
2015,07,19,16,53,28.00
2015,07,19,16,54,27.90
2015,07,19,16,55,27.90
2015,07,19,16,56,27.80
2015,07,19,16,57,27.60
2015,07,19,16,58,27.60
2015,07,19,16,59,27.50
2015,07,19,17,00,27.40
2015,07,19,17,01,27.30
2015,07,19,17,02,27.30
2015,07,19,17,03,27.40
2015,07,19,17,04,27.50
2015,07,19,17,05,27.60
2015,07,19,17,06,27.60
2015,07,19,17,07,27.60
2015,07,19,17,08,27.60
2015,07,19,17,09,27.60
2015,07,19,17,10,27.60
2015,07,19,17,11,27.50
2015,07,19,17,12,27.40
2015,07,19,17,13,27.30
2015,07,19,17,14,27.30
2015,07,19,17,15,27.30
2015,07,19,17,16,27.30
2015,07,19,17,17,27.30
2015,07,19,17,18,27.40
2015,07,19,17,19,27.40